Regional Weather Roundup
Issued by NWS

Home | Current Version | Previous Version | Text Only | Print | Product List | Glossary Off
Versions: 1 2 3 4 5 6 7 8 9 10 11 12 13 14 15 16 17 18 19 20 21 22 23 24 25 26 27 28 29 30 31 32 33 34 35 36 37 38 39 40 41 42 43 44 45 46 47 48 49 50

000
ASUS43 KFSD 121710
RWRSD

WEATHER ROUNDUP FOR SOUTH DAKOTA
NATIONAL WEATHER SERVICE SIOUX FALLS SD
1100 AM CST TUE DEC 12 2017

NOTE: "FAIR" INDICATES FEW OR NO CLOUDS BELOW 12,000 FEET WITH NO
SIGNIFICANT WEATHER AND/OR OBSTRUCTIONS TO VISIBILITY.


SDZ001>005-009-010-012>017-121800-
NORTHWEST AND NORTH CENTRAL SOUTH DAKOTA

CITY           SKY/WX    TMP DP  RH WIND       PRES   REMARKS
BUFFALO          N/A     46  26  45 W18       30.02F
FAITH            N/A     44  23  43 W13       30.08F
MOBRIDGE       CLOUDY    34  27  75 SW9       30.03F WCI  27
$$

SDZ012>016-024>037-041>051-057-063-072>074-121800-
SOUTHWEST AND SOUTH CENTRAL SOUTH DAKOTA

CITY           SKY/WX    TMP DP  RH WIND       PRES   REMARKS
RAPID CTY ARPT SUNNY     44  16  32 CALM      30.14F
PIERRE         SUNNY     32  26  78 MISG      30.12F
CUSTER         SUNNY     53   4  13 NW12G17   30.18R
ELLSWORTH AFB  SUNNY     46  15  28 CALM      30.13S
PHILIP         SUNNY     38  25  59 W13       30.15S
PINE RIDGE     SUNNY     44  25  47 SW9       30.20S
SPEARFISH      FAIR      52  16  24 W15       30.15F
WINNER         FAIR      44  28  53 SW9       30.17F
$$

SDZ004>011-016>023-039-040-121800-
NORTHEAST SOUTH DAKOTA

CITY           SKY/WX    TMP DP  RH WIND       PRES   REMARKS
ABERDEEN       CLOUDY    33  29  85 SW13      30.07F WCI  24
WATERTOWN      CLOUDY    29  27  92 SW10      30.07F WCI  20
BROOKINGS      CLOUDY    28  25  88 SW12      30.12F WCI  18
SISSETON         N/A     34  27  75 W15G22    30.02F WCI  24
$$

SDZ017-020-022-023-036>040-048>070-121800-
SOUTHEAST SOUTH DAKOTA

CITY           SKY/WX    TMP DP  RH WIND       PRES   REMARKS
SIOUX FALLS    CLOUDY    28  23  81 SW8       30.18F WCI  20
HURON          MOSUNNY   38  30  73 SW9       30.14F
CHAMBERLAIN    SUNNY     35  30  80 W6        30.15F
MITCHELL       SUNNY     36  30  79 SW8       30.18F
YANKTON        CLOUDY    30  25  81 CALM      30.21F
$$

ABBREVIATIONS USED IN REMARKS
   TC - TEMPERATURE IN CELSIUS
  WCI - WIND CHILL INDEX
   HX - HEAT INDEX
  VSB - VISIBILITY





USA.gov is the U.S. government's official web portal to all federal, state and local government web resources and services.